Flag for Canada Weather past 2 weeks in Vancouver, British Columbia, Canada

Now
54 °F

Partly cloudy.


Feels Like: 49 °F
Forecast: 53 / 58 °F
Wind: 15 mph from Southeast

Location: Vancouver International Air-Port

Current Time: Oct 22, 2014 at 8:08:43 AM

Latest Report: Oct 22, 2014 at 7:00 AM


Visibility: 15 mi

Pressure: 29.61 "Hg

Humidity: 88%

Dew point: 50 °F

Location of VancouverLocation

Historic Weather in Vancouver — Graph

°F

Vancouver temperature yesterday

Maximum temperature yesterday: 59 °F (at 11:00 PM)
Minimum temperature yesterday: 54 °F (at 2:46 AM)
Average temperature yesterday: 56 °F

Past Weeks' High & Low Weather Summary

 TemperatureHumidityPressure
High68 °F (Oct 19, 12:00 PM)100% (Oct 7, 6:00 AM)30.22 "Hg (Oct 7, 6:00 AM)
Low48 °F (Oct 12, 6:00 AM)63% (Oct 16, 4:00 PM)29.51 "Hg (Oct 15, 6:00 AM)
Average57 °F89%29.86 "Hg
* Reported Oct 7 6:00 AM — Oct 22 6:00 AM, Vancouver, Weather by CustomWeather, © 2014

Note: Actual official high and low records may vary slightly from our data, if they occured in-between our weather recording intervals... More about our weather records

Advertising

Vancouver weather history for previous 24 hours

 ConditionsComfort  
Time TempWeatherWind HumidityBarometerVisibility
6:00 AM
Oct 22
54 °FPassing clouds.15 mph94%29.60 "Hg10 mi
5:00 AM54 °FLight rain. Overcast.20 mph94%29.56 "Hg8 mi
4:51 AM54 °FLight rain. Mostly cloudy.22 mph94%29.57 "Hg8 mi
4:00 AM54 °FOvercast.20 mph94%29.58 "Hg8 mi
3:00 AM54 °FRain. Mostly cloudy.23 mph88%29.57 "Hg8 mi
2:53 AM54 °FHeavy rain. Mostly cloudy.23 mph88%29.57 "Hg8 mi
2:00 AM55 °FSprinkles. Overcast.21 mph82%29.57 "Hg8 mi
1:00 AM57 °FSprinkles. Overcast.25 mph77%29.56 "Hg10 mi
12:00 AM59 °FOvercast.28 mph72%29.59 "Hg12 mi
11:00 PM
Oct 21
59 °FSprinkles. Mostly cloudy.26 mph72%29.63 "Hg10 mi
10:00 PM57 °FSprinkles. Mostly cloudy.17 mph77%29.67 "Hg10 mi
9:00 PM57 °FSprinkles. Overcast.21 mph77%29.69 "Hg10 mi
8:00 PM57 °FSprinkles. Mostly cloudy.22 mph77%29.72 "Hg10 mi
7:00 PM55 °FLight rain. Cloudy.15 mph88%29.76 "Hg12 mi
6:00 PM57 °FMore clouds than sun.20 mph82%29.78 "Hg15 mi
5:48 PM57 °FMore clouds than sun.15 mph82%29.78 "Hg15 mi
5:00 PM55 °FLight rain. Overcast.14 mph88%29.80 "Hg15 mi
4:00 PM57 °FMostly cloudy.14 mph82%29.81 "Hg15 mi
3:00 PM57 °FSprinkles. Cloudy.13 mph82%29.82 "Hg15 mi
2:00 PM57 °FMostly cloudy.16 mph82%29.83 "Hg15 mi
1:00 PM57 °FCloudy.17 mph82%29.85 "Hg15 mi
12:00 PM55 °FMostly cloudy.16 mph88%29.86 "Hg15 mi
11:00 AM57 °FBroken clouds.13 mph88%29.85 "Hg15 mi
10:00 AM57 °FBroken clouds.12 mph82%29.83 "Hg15 mi
9:00 AM54 °FBroken clouds.10 mph94%29.82 "Hg15 mi
8:00 AM54 °FOvercast.12 mph94%29.80 "Hg15 mi
Weather by CustomWeather, © 2014

See weather overviewHow to use our weather pages